CAPE
0 0 0 0 0 0 0 0 0 0 0 0 0 0 0 0 0 0 0 0 8 8 13 6 0 1 7 14 19 29 52 67 43 23 12 13 16 19
0 0 0 0 0 0 0 0 0 0 0 0 0 0 0 0 0 0 0 0 0 0 0 37 57 12 6 13 10 16 37 81 51 23 11 6 7 15
0 0 0 0 0 0 0 0 0 0 0 0 0 0 0 0 0 0 0 0 0 0 13 37 43 58 78 69 65 50 47 47 44 5 4 5 6 6
0 0 1 0 0 0 0 0 0 0 0 0 0 0 0 0 0 0 0 0 0 0 30 56 65 66 56 53 79 65 54 56 15 8 0 0 0 0
0 0 0 0 0 0 0 0 0 0 0 0 0 0 0 0 0 0 0 0 0 0 16 15 17 30 45 53 47 66 49 42 27 16 16 1 0 0
0 0 0 0 0 0 0 0 0 0 0 0 0 0 0 0 0 0 0 0 0 0 0 0 8 0 14 20 47 63 90 65 45 25 9 4 0 1
0 0 0 0 0 0 0 0 0 0 0 0 0 0 0 0 0 0 2 0 0 0 0 0 0 0 0 0 0 38 53 55 46 31 37 4 0 6
0 0 0 0 0 0 0 0 0 0 0 0 0 0 0 0 14 0 0 0 0 0 0 0 0 0 0 0 0 22 60 68 58 41 23 9 10 27
0 0 0 0 0 0 0 0 0 0 0 0 0 0 4 1 0 0 0 0 0 0 0 0 0 0 0 0 0 22 44 54 61 37 23 1 0 18
0 0 0 0 0 0 0 0 0 0 0 0 0 0 0 0 0 0 0 0 0 0 0 1 0 0 0 0 0 0 33 51 57 46 22 0 0 13
0 0 0 0 0 0 0 0 0 0 0 0 0 0 0 2 11 2 0 17 4 0 0 0 0 0 0 0 0 0 1 47 42 42 30 10 0 0
0 0 0 0 0 0 0 0 0 0 0 0 0 0 0 0 6 3 3 0 0 0 0 0 0 0 0 0 0 0 0 0 0 29 31 24 0 0
0 0 0 0 0 0 0 0 0 0 0 0 0 0 0 0 0 0 0 0 8 3 0 0 0 1 0 0 0 0 0 1 0 0 25 12 1 0
0 0 0 0 0 0 0 0 0 0 0 0 0 0 0 0 0 0 0 0 0 0 0 0 0 2 2 0 0 0 0 0 0 0 0 0 0 0
0 0 0 0 0 0 0 0 0 0 0 0 0 0 0 0 0 0 0 0 0 0 3 5 0 3 0 0 0 0 1 1 0 0 0 0 0 0
0 0 0 0 0 0 0 0 0 0 0 0 0 0 0 0 0 0 0 0 0 0 0 0 0 0 0 0 0 0 0 4 1 0 0 0 0 0
0 0 0 0 0 0 0 0 0 0 0 0 0 0 0 0 0 0 0 0 0 0 0 0 0 0 1 3 0 0 0 0 0 0 0 0 0 0
0 0 0 0 0 0 0 0 0 0 0 0 0 0 0 0 0 0 0 0 0 0 0 0 0 0 0 0 0 0 0 1 0 0 0 0 0 1
0 0 0 0 0 0 0 0 0 0 0 0 0 0 0 0 0 0 0 0 0 0 0 0 1 0 0 0 2 0 0 0 0 0 0 0 0 0
1 0 0 0 0 0 0 0 0 0 0 0 0 0 0 0 0 0 0 0 0 0 0 0 0 0 3 0 0 0 0 0 0 0 0 0 0 0
0 0 0 0 0 0 0 0 0 0 0 0 0 0 0 0 0 0 0 0 0 0 0 0 0 0 0 0 0 0 0 0 0 0 0 0 0 0
0 0 0 0 0 0 0 0 0 0 0 0 0 0 0 0 0 0 0 0 0 0 0 0 0 0 0 1 0 0 0 0 0 0 0 0 0 0
0 0 0 0 0 0 0 0 0 0 0 0 0 0 0 0 0 0 0 0 0 0 0 0 0 0 0 0 0 0 0 0 0 0 0 0 0 0
CIN
0 0 -42 0 0 0 0 0 0 0 0 0 0 0 0 0 0 0 0 0 -25 -39 -29 -19 -19 -1 -1 0 0 0 0 0 0 0 0 0 0 0
0 0 0 0 0 0 0 0 0 0 0 0 0 0 0 0 0 0 0 0 0 0 0 -3 -1 -3 -3 -4 -4 -1 0 0 0 0 0 0 0 0
0 0 0 0 0 0 0 0 0 0 0 0 0 0 0 0 0 0 0 0 0 0 -4 -1 -1 -2 -2 -3 -2 0 0 -1 0 -3 0 0 0 0
0 0 -2 0 0 0 0 0 0 0 0 0 0 0 0 0 0 0 0 0 0 0 -1 0 -1 -2 -2 -4 -5 -4 -1 -1 -2 -11 0 0 0 0
0 0 0 0 0 0 0 0 0 0 0 0 0 0 0 0 0 0 0 0 0 0 0 -1 -4 -5 -4 -2 -3 -4 -7 -8 -7 -8 -11 -2 0 0
0 0 0 0 0 0 0 0 0 0 0 0 0 0 0 0 0 0 0 0 0 0 0 0 -3 0 -4 -7 -3 -2 -3 -5 -7 -9 -13 -15 0 -6
0 0 0 0 0 0 0 0 0 0 0 0 0 0 0 0 0 0 -1 0 0 0 0 0 0 0 0 0 0 -6 -2 -8 -12 -12 -12 -19 0 -11
0 0 0 0 0 0 0 0 0 0 0 0 0 -1 0 0 0 -1 0 0 0 0 0 0 0 0 0 0 0 -11 -2 -8 -7 -12 -16 -26 -21 -14
0 0 0 0 0 0 0 0 0 0 0 0 0 0 -2 -1 -2 0 0 0 -1 0 0 0 0 0 0 0 0 -2 -1 -2 -5 -17 -17 -16 0 -3
0 0 0 0 0 0 0 0 0 0 0 0 0 0 0 0 0 0 0 0 0 0 0 0 0 0 0 0 0 0 -3 -1 -2 -6 -15 0 0 -12
0 0 0 0 0 0 0 0 0 0 0 0 0 0 0 -2 -2 -4 -4 0 0 0 0 0 0 0 0 0 0 0 -9 -2 -3 -4 -12 -17 0 0
0 0 0 0 0 0 0 0 0 0 0 0 0 0 0 0 -7 -9 -4 -1 0 0 0 0 0 0 -1 0 0 0 0 0 0 -12 -11 -15 -1 0
0 0 0 0 0 0 0 0 0 0 0 0 0 0 0 0 0 0 0 0 0 -1 0 0 -2 -1 -1 0 0 0 0 0 0 0 -22 -19 -5 0
0 0 0 0 0 0 0 0 0 0 0 0 0 0 0 0 0 0 0 0 0 0 0 0 0 0 -1 -1 0 0 0 0 0 0 0 0 0 0
0 0 0 0 0 0 0 -1 0 0 0 0 0 0 0 0 0 0 0 0 0 0 0 0 0 -2 0 0 0 0 0 0 0 0 0 0 0 0
0 0 0 0 0 0 0 0 0 0 0 0 0 0 0 0 0 0 0 0 0 0 0 0 0 0 0 0 0 0 0 0 0 0 0 0 0 0
0 0 0 0 0 0 0 0 0 0 0 0 0 0 0 0 0 0 0 0 -1 0 0 0 0 0 0 0 0 0 0 0 0 0 0 0 0 0
0 0 0 0 0 0 0 0 0 0 0 0 0 0 0 0 0 0 0 0 0 0 0 0 0 0 0 0 0 0 0 0 0 0 0 0 0 0
0 0 0 0 0 0 0 0 0 0 0 0 0 0 0 0 0 0 0 0 0 0 0 0 -1 0 0 0 0 0 0 0 0 0 0 0 0 0
-1 0 0 0 0 0 0 0 0 0 0 0 0 0 0 0 0 0 0 0 0 0 0 0 0 0 0 0 0 0 0 0 0 0 0 0 0 0
0 0 0 0 0 0 0 0 0 0 0 0 0 0 0 0 0 0 0 0 0 0 0 0 0 0 0 0 0 0 0 0 0 0 0 0 0 0
0 0 0 0 0 0 0 0 0 0 0 0 0 0 0 0 0 0 0 0 0 0 0 0 0 0 0 0 0 0 0 0 0 0 0 0 0 0
0 0 0 0 0 0 0 0 0 0 0 0 0 0 0 0 0 0 0 0 0 0 0 0 0 0 0 0 0 0 0 0 0 0 0 0 0 0
Wind_Speed
3 3 3 4 3 3 2 2 2 4 5 3 3 6 4 4 6 4 4 8 10 10 12 16 18 20 19 19 20 22 22 21 20 21 21 22 24 24
3 3 2 2 2 1 1 2 2 2 9 1 2 4 5 7 9 4 5 11 12 15 17 16 14 16 18 19 20 22 21 20 21 21 22 22 23 25
4 3 2 2 2 3 2 3 4 3 3 4 3 5 5 7 6 5 6 5 5 13 16 17 18 18 17 16 18 20 20 20 21 23 24 24 23 24
6 3 2 2 3 4 3 2 1 2 1 7 4 5 5 6 5 6 7 8 7 13 17 17 18 15 13 13 15 16 18 17 21 24 22 22 23 23
5 3 4 3 1 1 1 2 2 3 2 3 7 4 7 5 6 6 6 6 7 16 15 17 19 19 19 15 17 16 18 20 21 19 19 19 21 21
5 4 5 2 4 2 1 1 2 3 2 3 7 8 5 6 5 6 8 4 5 9 12 14 17 18 17 17 17 15 18 20 21 20 19 17 17 18
4 4 3 4 4 5 2 2 2 2 3 5 7 7 8 8 7 7 5 5 8 5 7 9 5 7 10 14 15 16 13 13 13 14 19 15 16 17
5 5 2 3 3 6 7 4 2 2 4 3 6 8 9 9 4 7 5 8 9 4 3 12 6 10 9 8 16 18 15 13 15 10 8 10 14 15
5 2 3 4 5 4 1 3 5 9 7 6 8 8 8 8 8 9 9 8 9 10 6 12 8 9 9 10 18 18 18 15 15 11 11 11 11 10
1 2 3 1 3 3 1 3 4 5 5 6 4 6 8 8 8 9 10 10 10 9 7 8 4 7 7 7 19 21 19 16 16 15 13 12 11 10
4 4 4 4 4 2 1 3 5 5 8 12 17 17 18 20 17 7 6 7 8 7 3 6 3 8 5 9 6 12 11 15 17 17 15 12 11 10
4 4 2 5 3 2 1 3 4 7 6 7 7 10 12 11 13 6 5 7 8 7 3 2 8 3 5 3 2 3 2 16 17 16 16 13 12 4
3 2 3 7 4 6 7 4 6 6 6 5 6 5 6 6 4 4 5 6 8 8 9 7 7 7 5 3 3 2 3 11 4 4 12 12 12 9
5 3 4 11 9 9 7 10 13 8 2 3 4 4 5 6 7 6 8 8 7 10 13 12 5 4 4 3 4 3 5 7 2 2 3 6 10 10
4 7 11 11 12 9 14 15 10 3 4 2 5 3 3 6 8 6 7 8 9 10 8 10 5 4 4 3 4 3 5 4 2 1 1 2 3 2
7 6 4 5 7 8 7 8 4 4 4 4 3 3 3 3 4 5 7 7 7 5 8 8 8 7 3 2 2 4 2 4 3 0 2 1 0 2
4 2 3 3 4 5 4 4 3 3 2 2 1 2 3 2 5 6 6 7 6 7 8 8 10 7 4 3 3 4 6 4 2 1 3 1 1 1
4 3 3 4 4 5 5 4 3 4 3 2 1 1 2 2 4 6 6 5 6 6 7 8 6 6 2 1 8 4 6 4 3 3 2 1 1 3
6 4 4 5 6 5 6 4 4 3 4 2 2 2 2 3 3 4 5 6 6 6 6 6 5 4 5 3 2 11 4 3 2 3 2 3 3 4
8 8 7 7 7 7 6 4 3 3 3 3 2 2 2 2 2 3 5 3 6 6 6 6 5 5 5 2 3 2 10 2 2 2 2 2 4 8
7 8 8 7 7 7 6 4 4 4 4 3 2 2 3 1 2 3 4 5 4 5 6 6 7 13 7 1 1 2 3 8 6 1 1 2 1 2
8 8 7 8 8 8 7 5 5 4 4 3 3 3 3 3 2 3 3 3 4 4 5 7 8 7 4 2 2 3 1 3 5 11 12 6 1 2
9 9 8 8 8 7 6 6 6 5 4 4 4 4 3 1 3 2 3 3 2 2 4 6 6 6 4 5 3 1 2 1 0 2 3 9 8 8
Wind_Direction
244 256 238 248 241 229 301 199 190 293 294 279 281 263 289 294 284 297 304 308 315 310 308 304 296 293 293 294 292 289 283 272 277 284 287 290 293 292
15 2 312 308 310 85 56 353 229 255 294 305 308 323 328 328 312 335 311 319 306 298 291 291 298 299 292 289 286 283 278 267 273 279 286 286 287 290
340 355 0 355 27 347 356 352 25 32 301 309 311 318 329 322 319 308 305 292 277 290 288 292 287 284 281 279 278 276 264 263 266 276 284 284 283 286
298 285 308 290 291 10 77 56 51 329 3 316 302 316 305 304 295 302 306 301 294 295 294 301 298 304 309 304 275 271 273 261 264 271 279 279 279 282
297 314 286 291 5 139 43 36 353 348 318 308 308 307 306 291 307 300 289 291 300 314 319 318 311 302 300 302 292 266 261 257 264 265 265 269 274 280
266 273 284 140 190 226 200 300 3 343 306 289 294 298 299 299 292 297 303 301 313 309 307 294 292 298 302 303 298 283 274 269 266 259 258 258 259 267
305 297 147 224 225 180 122 45 27 299 294 289 290 298 301 302 298 301 299 305 301 284 288 287 291 301 289 286 283 284 274 272 286 292 254 249 259 259
299 308 330 16 128 99 104 106 122 282 283 259 295 295 294 295 310 308 300 306 309 258 348 295 290 285 280 274 273 274 274 270 279 293 231 251 272 245
286 292 345 79 119 142 84 11 339 325 300 288 293 293 299 298 296 295 294 289 286 287 290 286 294 276 271 268 271 270 270 261 266 246 249 259 285 244
244 349 332 157 168 137 42 332 297 287 288 286 289 301 280 286 274 280 284 281 274 277 265 276 294 278 284 261 266 272 271 269 255 245 241 250 263 252
280 312 309 135 161 48 41 317 302 290 306 312 314 312 311 307 303 304 290 303 314 307 246 270 269 302 276 286 273 274 281 290 272 242 231 237 246 257
273 284 150 160 172 328 260 246 283 287 287 303 304 306 301 295 308 306 307 308 302 301 261 320 295 275 295 262 273 258 320 298 277 248 224 223 232 237
237 239 195 191 216 268 275 216 235 263 276 292 294 288 306 297 290 288 288 291 297 291 282 272 271 277 247 301 279 249 349 304 263 237 204 212 225 216
227 225 241 215 262 291 293 270 275 272 256 278 278 295 297 310 304 292 293 291 285 279 291 288 283 253 279 278 279 310 296 313 179 211 193 217 227 233
213 237 255 258 275 282 277 273 272 241 248 258 270 274 259 296 306 307 306 298 297 293 310 312 312 282 249 271 293 296 327 307 293 154 182 183 194 178
231 247 240 239 241 251 265 266 243 230 218 237 229 252 274 305 307 313 316 315 309 307 319 318 314 311 279 252 266 298 287 310 316 315 94 82 110 226
209 201 227 237 258 271 246 241 244 237 221 194 238 288 292 285 312 321 316 317 318 322 329 330 326 302 295 308 312 304 291 277 254 94 58 12 326 221
199 197 227 226 238 261 250 247 248 239 193 201 251 248 277 290 308 322 322 328 327 327 327 326 330 339 353 47 37 326 347 42 54 58 42 128 103 45
225 212 215 224 243 245 250 215 232 215 181 193 177 251 274 285 310 313 321 329 329 323 315 323 337 352 356 337 326 37 354 4 6 23 23 51 74 49
237 235 224 228 234 242 244 218 208 175 184 190 191 242 278 243 304 311 310 309 324 320 333 333 335 336 321 257 310 286 23 5 24 11 19 49 54 88
228 233 229 227 232 235 224 213 190 189 189 186 214 219 253 204 289 295 298 309 313 332 332 328 313 307 282 215 311 307 327 31 51 59 340 55 176 136
225 227 226 224 229 231 219 201 192 187 200 199 214 201 227 172 251 287 289 294 312 317 324 315 316 315 305 198 261 156 103 349 18 53 53 67 141 118
227 226 228 227 224 216 208 194 193 197 201 196 176 192 165 195 261 271 270 293 304 324 338 328 327 333 345 12 331 106 70 4 301 25 16 29 57 66